This demonstration page uses our WeatherBlox Daily Observations layout. Learn more.

Hourly Observations for July 13, 2017

Temp ( °F °C ) Dew Point ( °F °C ) Humidity (%) Winds ( mph kmh ) Pressure ( in mb ) Visibility ( mi km ) Precip ( " mm )
12:53 am 00:53 Clear 75 23.9 72 22.2 90 90 Calm 30.03 1017 8 12.87472 0 0
1:53 am 01:53 Clear 78 25.6 72 22.2 82 82 SW 5 7 30.04 1017 8 12.87472 0 0
2:53 am 02:53 Clear 79 26.1 72 22.2 79 79 VRB 3 6 30.03 1017 8 12.87472 0 0
3:53 am 03:53 Partly Cloudy 79 26.1 73 22.8 82 82 WSW 5 7 30.01 1016 8 12.87472 0 0
4:53 am 04:53 Cloudy 79 26.1 73 22.8 82 82 SW 5 7 30.01 1016 8 12.87472 0 0
5:53 am 05:53 Mostly Cloudy 79 26.1 73 22.8 82 82 SW 5 7 30.02 1017 8 12.87472 0 0
6:53 am 06:53 Mostly Cloudy 78 25.6 74 23.3 87 87 SW 6 9 30.03 1017 7 11.26538 0 0
7:53 am 07:53 Mostly Sunny 79 26.1 74 23.3 85 85 WSW 8 13 30.03 1017 7 11.26538 0 0
8:12 am 08:12 Mostly Cloudy with Nearby Thunderstorms 79 26.1 74 23.3 85 85 W 10 17 30.06 1018 6 9.65604 0 0
8:25 am 08:25 Cloudy with Thunderstorms 78 25.6 74 23.3 87 87 WNW 12 19 30.06 1018 6 9.65604 0 0
8:53 am 08:53 Cloudy with Heavy Thunderstorms 76 24.4 75 23.9 97 97 N 9 15 30.08 1019 0.75 1.207005 0.23 5.842
9:14 am 09:14 Cloudy with Heavy Thunderstorms 73 22.8 73 22.8 100 100 VRB 3 6 30.06 1018 0.75 1.207005 0.82 20.828
9:22 am 09:22 Cloudy with Heavy Thunderstorms 74 23.3 74 23.3 100 100 WNW 5 7 30.09 1019 1 1.60934 1.05 26.67
9:30 am 09:30 Cloudy with Heavy Thunderstorms 73 22.8 73 22.8 100 100 S 8 13 30.06 1018 0.5 0.80467 1.26 32.004
9:36 am 09:36 Cloudy with Light Thunderstorms 73 22.8 73 22.8 100 100 SSW 8 13 30.06 1018 1.75 2.816345 1.28 32.512
9:44 am 09:44 Cloudy with Light Thunderstorms 74 23.3 73 22.8 97 97 WSW 7 11 30.06 1018 1.25 2.011675 1.33 33.782
9:48 am 09:48 Cloudy with Light Thunderstorms 73 23 72 22 94 94 WSW 9 15 30.06 1018 3 4.82802 1.33 33.782
9:53 am 09:53 Cloudy with Light Thunderstorms 74 23.3 72 22.2 94 94 WSW 6 9 30.07 1018 5 8.0467 1.34 34.036
10:11 am 10:11 Cloudy with Nearby Thunderstorms 74 23.3 73 22.8 97 97 SE 5 7 30.06 1018 4 6.43736 0.02 0.508
10:26 am 10:26 Cloudy with Light Rain 74 23.3 74 23.3 100 100 VRB 3 6 30.06 1018 3 4.82802 0.04 1.016
10:44 am 10:44 Cloudy with Nearby Thunderstorms 75 23.9 75 23.9 100 100 Calm 30.06 1018 5 8.0467 0.05 1.27
10:53 am 10:53 Cloudy with Nearby Thunderstorms 75 23.9 75 23.9 100 100 Calm 30.08 1019 5 8.0467 0.05 1.27
11:31 am 11:31 Mostly Cloudy with Mist and Fog 78 25.6 76 24.4 93 93 WSW 6 9 30.06 1018 6 9.65604 0 0
11:53 am 11:53 Partly Cloudy with Mist and Fog 81 27.2 78 25.6 91 91 SW 7 11 30.08 1019 6 9.65604 0 0
12:53 pm 12:53 Partly Cloudy 85 29.4 78 25.6 80 80 WSW 9 15 30.07 1018 7 11.26538 0 0
1:27 pm 13:27 Mostly Cloudy 86 30 79 26.1 80 80 W 8 13 30.03 1017 7 11.26538 0 0
1:37 pm 13:37 Partly Cloudy 87 30.6 79 26.1 77 77 VRB 5 7 30.03 1017 7 11.26538 0 0
1:45 pm 13:45 Mostly Cloudy 87 30.6 79 26.1 77 77 WSW 9 15 30.03 1017 7 11.26538 0 0
1:53 pm 13:53 Partly Cloudy 87 30.6 78 25.6 75 75 SW 6 9 30.05 1018 7 11.26538 0 0
2:53 pm 14:53 Partly Cloudy with Nearby Thunderstorms 90 32.2 79 26.1 70 70 SSW 9 15 30.03 1017 8 12.87472 0 0
3:08 pm 15:08 Partly Cloudy 87 30.6 77 25 72 72 SW 7 11 30 1016 8 12.87472 0 0
3:15 pm 15:15 Mostly Cloudy with Nearby Thunderstorms 86 30 77 25 75 75 S 6 9 30.03 1017 8 12.87472 0 0
3:31 pm 15:31 Mostly Cloudy 83 28.3 74 23.3 74 74 SSW 7 11 30.03 1017 9 14.48406 0 0
3:44 pm 15:44 Mostly Cloudy with Nearby Thunderstorms 83 28.3 75 23.9 77 77 Calm 30.03 1017 9 14.48406 0 0
3:53 pm 15:53 Partly Cloudy with Thunderstorms 83 28.3 75 23.9 77 77 VRB 6 9 30.03 1017 9 14.48406 0 0
4:16 pm 16:16 Mostly Cloudy with Heavy Thunderstorms 77 25 73 22.8 88 88 WSW 8 13 30.06 1018 1.75 2.816345 0.05 1.27
4:23 pm 16:23 Cloudy with Heavy Thunderstorms 77 25 74 23.3 90 90 WSW 15 24 30.06 1018 1.25 2.011675 0.11 2.794
4:32 pm 16:32 Cloudy with Heavy Thunderstorms 74 23.3 72 22.2 94 94 WNW 9 15 30.06 1018 0.5 0.80467 0.37 9.398
4:45 pm 16:45 Mostly Cloudy with Light Thunderstorms 75 23.9 73 22.8 94 94 undefined N/A 30.06 1018 1 1.60934 0.61 15.494
4:47 pm 16:47 Mostly Cloudy with Nearby Thunderstorms 73 23 73 23 100 100 Calm 30.06 1018 1.75 2.816345 0.61 15.494
4:49 pm 16:49 Mostly Cloudy with Nearby Thunderstorms 75 24 73 23 94 94 Calm 30.06 1018 5 8.0467 0.61 15.494
4:53 pm 16:53 Partly Cloudy with Nearby Thunderstorms 75 23.9 74 23.3 96 96 S 3 6 30.03 1017 8 12.87472 0.61 15.494
5:09 pm 17:09 Sunny 78 25.6 76 24.4 93 93 Calm 30.06 1018 9 14.48406 0 0
5:53 pm 17:53 Sunny 84 28.9 78 25.6 82 82 SW 3 6 30.01 1016 10 16.0934 0 0
6:53 pm 18:53 Sunny 84 28.9 74 23.3 72 72 W 5 7 30.02 1017 10 16.0934 0 0
7:53 pm 19:53 Sunny 82 27.8 75 23.9 79 79 WSW 5 7 30.01 1016 10 16.0934 0 0
8:53 pm 20:53 Sunny 77 25 76 24.4 96 96 SSW 3 6 30.02 1017 8 12.87472 0 0
9:53 pm 21:53 Mostly Cloudy with Light Rain 78 25.6 76 24.4 93 93 Calm 30.02 1017 8 12.87472 0 0.0254
10:42 pm 22:42 Partly Cloudy with Thunderstorms 77 25 76 24.4 96 96 Calm 30.06 1018 6 9.65604 0 0.0254
10:53 pm 22:53 Mostly Cloudy with Thunderstorms 77 25 77 25 100 100 SSW 9 15 30.05 1018 5 8.0467 0 0.0254
11:45 pm 23:45 Mostly Cloudy with Nearby Thunderstorms 75 23.9 73 22.8 94 94 Calm 30.06 1018 10 16.0934 0.01 0.254
11:53 pm 23:53 Mostly Cloudy with Nearby Thunderstorms 76 24.4 73 22.8 91 91 Calm 30.03 1017 10 16.0934 0.01 0.254

Powered by AerisWeather